Weather History for Wooster, OH

Change the Weather History Date:

Tuesday, April 30, 2013

  Actual Average Record
Temperature  
Mean Temperature 58 °F -  
Max Temperature 73 °F 63 °F 80 °F (2012)
Min Temperature 44 °F 40 °F 30 °F (2008)
Degree Days  
Heating Degree Days 6    
Growing Degree Days 8 (Base 50)    
Moisture  
Dew Point 51 °F    
Average Humidity 80    
Maximum Humidity 100    
Minimum Humidity 51    
Precipitation  
Precipitation 0.01 in - - ()
Sea Level Pressure  
Sea Level Pressure 30.08 in    
Wind  
Wind Speed 3 mph (SSE)    
Max Wind Speed 13 mph    
Max Gust Speed -    
Visibility 6 miles    
Events Fog    
Averages and records for this station are not official NWS values.
T = Trace of Precipitation, MM = Missing Value Source: NWS Daily Summary

Daily Weather History Graph

Daily Weather History Graph

Search for Another Location

Airport:

Trip Planner

Search our weather history database for the weather conditions in past years. The results will help you decide how hot, cold, wet, or windy it might be!

Date:

Astronomy

Apr. 30, 2013 Rise Set
Actual Time 6:26 AM EDT 8:23 PM EDT
Civil Twilight 5:57 AM EDT 8:53 PM EDT
Nautical Twilight 5:20 AM EDT 9:29 PM EDT
Astronomical Twilight 4:41 AM EDT 10:08 PM EDT
Moon 12:45 AM EDT (4/30) 10:53 AM EDT (4/30)
Length of Visible Light 14h 55m
Length of Day
13h 56m
Waning Gibbous, 70% of the Moon is Illuminated
Apr 30
Waning Gibbous
May 2
Last Quarter
May 9
New
May 18
First Quarter
May 25
Full

Hourly Weather History & Observations

Time (EDT) Temp. Dew Point Humidity Pressure Visibility Wind Dir Wind Speed Gust Speed Precip Events Conditions
12:56 AM 51.1 °F 48.9 °F 92% 30.01 in 6.0 mi Calm Calm - N/A   Clear
1:53 AM 48.2 °F 48.2 °F 100% 30.02 in 1.5 mi Calm Calm - N/A   Clear
1:56 AM 48.9 °F 48.0 °F 97% 30.02 in 0.8 mi Calm Calm - N/A   Clear
2:56 AM 46.9 °F 46.0 °F 97% 30.03 in 0.5 mi Calm Calm - N/A Fog Fog
3:45 AM 46.4 °F 44.6 °F 93% 30.03 in 0.2 mi Calm Calm - N/A Fog Fog
3:56 AM 45.0 °F 45.0 °F 100% 30.04 in 0.2 mi Calm Calm - N/A Fog Fog
4:56 AM 45.0 °F 44.1 °F 97% 30.05 in 0.2 mi Calm Calm - N/A Fog Fog
5:56 AM 44.1 °F 43.0 °F 96% 30.06 in 0.2 mi Calm Calm - N/A Fog Fog
6:56 AM 45.0 °F 45.0 °F 100% 30.08 in 0.2 mi Calm Calm - N/A Fog Fog
7:56 AM 50.0 °F 48.9 °F 96% 30.09 in 1.0 mi Calm Calm - N/A   Mist
8:02 AM 50.0 °F 50.0 °F 100% 30.09 in 2.0 mi Calm Calm - N/A   Partly Cloudy
8:21 AM 53.6 °F 51.8 °F 94% 30.09 in 3.0 mi SSE 5.8 mph - N/A   Clear
8:56 AM 57.9 °F 55.0 °F 90% 30.10 in 6.0 mi SE 4.6 mph - N/A   Clear
9:56 AM 62.1 °F 55.9 °F 80% 30.10 in 10.0 mi SSE 8.1 mph - N/A   Partly Cloudy
10:19 AM 62.6 °F 57.2 °F 82% 30.10 in 9.0 mi SSE 9.2 mph - 0.01 in   Mostly Cloudy
10:56 AM 64.0 °F 55.0 °F 73% 30.11 in 10.0 mi South 9.2 mph - 0.01 in   Scattered Clouds
11:56 AM 66.9 °F 55.0 °F 66% 30.11 in 10.0 mi South 10.4 mph - N/A   Partly Cloudy
12:56 PM 68.0 °F 55.0 °F 63% 30.11 in 10.0 mi Variable 3.5 mph - N/A   Mostly Cloudy
1:56 PM 68.0 °F 54.0 °F 61% 30.12 in 10.0 mi SSE 3.5 mph - N/A   Partly Cloudy
2:56 PM 71.1 °F 54.0 °F 55% 30.10 in 10.0 mi Variable 4.6 mph - N/A   Mostly Cloudy
3:56 PM 72.0 °F 54.0 °F 53% 30.08 in 10.0 mi ESE 5.8 mph - N/A   Scattered Clouds
4:56 PM 72.0 °F 54.0 °F 53% 30.06 in 10.0 mi SSE 9.2 mph - N/A   Clear
5:56 PM 73.0 °F 54.0 °F 51% 30.06 in 10.0 mi SSE 12.7 mph - N/A   Clear
6:56 PM 71.1 °F 54.0 °F 55% 30.06 in 10.0 mi SE 9.2 mph - N/A   Clear
7:56 PM 64.9 °F 55.0 °F 70% 30.08 in 10.0 mi SSE 5.8 mph - N/A   Clear
8:56 PM 62.1 °F 52.0 °F 70% 30.09 in 10.0 mi South 4.6 mph - N/A   Clear
9:56 PM 59.0 °F 52.0 °F 78% 30.11 in 10.0 mi SE 5.8 mph - N/A   Clear
10:56 PM 57.9 °F 51.1 °F 78% 30.12 in 10.0 mi SE 5.8 mph - N/A   Clear
11:56 PM 57.9 °F 51.1 °F 78% 30.13 in 10.0 mi SE 5.8 mph - N/A   Clear